Flag for U.S.A. Weather past 2 weeks in Huntsville, Alabama, U.S.A.

Now
81 °F

Partly sunny.


Feels Like: 80 °F
Forecast: 44 / 81 °F
Wind: 12 mph from Southwest

Location: Huntsville International / Jones Field


UV Index: 7 (High)

Visibility: 10 mi


Pressure: 29.90 "Hg

Humidity: 34%

Dew point: 50 °F

Location of HuntsvilleLocation

Historic Weather in Huntsville

°F

Huntsville temperature yesterday

Maximum temperature yesterday: 74 °F (at 3:53 PM)
Minimum temperature yesterday: 50 °F (at 5:53 AM)
Average temperature yesterday: 63 °F

Past Weeks' High & Low Weather Summary

 TemperatureHumidityPressure
High81 °F (Apr 13, 2:53 PM)97% (Apr 22, 7:53 AM)30.37 "Hg (Apr 22, 7:53 AM)
Low33 °F (Apr 16, 5:53 AM)23% (Apr 23, 5:53 PM)29.75 "Hg (Apr 14, 4:53 PM)
Average61 °F60%30.08 "Hg
* Reported Apr 9 12:53 PM — Apr 24 12:53 PM, Huntsville, Weather by CustomWeather, © 2014

Note: Actual official high and low records may vary slightly from our data, if they occured in-between our weather recording intervals... More about our weather records

Advertising

Historic Weather Conditions — Data for Previous 24 hours

 ConditionsComfort  
Time TempWeatherWind HumidityBarometerVisibility
12:53 PM
Apr 24
80 °FPartly sunny.12 mph34%29.92 "Hg10 mi
11:53 AM78 °FPartly sunny.10 mph31%29.94 "Hg10 mi
10:53 AM74 °FPartly sunny.12 mph32%29.97 "Hg10 mi
9:53 AM69 °FPassing clouds.9 mph35%29.99 "Hg10 mi
8:53 AM64 °FPassing clouds.9 mph43%29.99 "Hg10 mi
7:53 AM56 °FPassing clouds.7 mph62%29.99 "Hg10 mi
6:53 AM49 °FPassing clouds.3 mph80%29.98 "Hg10 mi
5:53 AM45 °FPassing clouds.6 mph90%29.96 "Hg10 mi
4:53 AM46 °FClear.No wind89%29.96 "Hg10 mi
3:53 AM49 °FClear.No wind84%29.94 "Hg10 mi
2:53 AM49 °FClear.3 mph86%29.94 "Hg10 mi
1:53 AM49 °FClear.No wind80%29.95 "Hg10 mi
12:53 AM53 °FClear.No wind61%29.95 "Hg10 mi
11:53 PM
Apr 23
56 °FClear.3 mph51%29.95 "Hg10 mi
10:53 PM55 °FClear.No wind57%29.96 "Hg10 mi
9:53 PM61 °FClear.7 mph42%29.97 "Hg10 mi
8:53 PM61 °FClear.6 mph50%29.96 "Hg10 mi
7:53 PM65 °FSunny.5 mph39%29.95 "Hg10 mi
6:53 PM70 °FSunny.8 mph31%29.93 "Hg10 mi
5:53 PM74 °FSunny.8 mph23%29.93 "Hg10 mi
4:53 PM74 °FSunny.9 mph26%29.93 "Hg10 mi
3:53 PM74 °FSunny.8 mph25%29.94 "Hg10 mi
2:53 PM73 °FSunny.6 mph26%29.96 "Hg10 mi
Weather by CustomWeather, © 2014

See weather overview